Los Alamitos, CA

12:55 PM PDT on August 28, 2016 (GMT -0700)
Los Alamitos Army Air Field

Weather History for KSLI - October, 2013

Change the Weather History Date:

Saturday, October 26, 2013

  Actual Average Record
Temperature  
Mean Temperature 62 °F -  
Max Temperature 72 °F 73 °F 91 °F (2003)
Min Temperature 51 °F 58 °F 51 °F (2006)
Degree Days  
Heating Degree Days 4    
Growing Degree Days 12 (Base 50)    
Moisture  
Dew Point 57 °F    
Average Humidity 99    
Maximum Humidity 100    
Minimum Humidity 72    
Precipitation  
Precipitation 0.00 in - - ()
Sea Level Pressure  
Sea Level Pressure 30.04 in    
Wind  
Wind Speed 1 mph (WSW)    
Max Wind Speed 10 mph    
Max Gust Speed -    
Visibility 2 miles    
Events Fog , Rain    
Averages and records for this station are not official NWS values.
T = Trace of Precipitation, MM = Missing Value Source: NWS Daily Summary

Daily Weather History Graph

Daily Weather History Graph

Search for Another Location

Airport or City:

Trip Planner

Search our weather history database for the weather conditions in past years. The results will help you decide how hot, cold, wet, or windy it might be!

Date:

Astronomy

Oct. 26, 2013 Rise Set
Actual Time 7:06 AM PDT 6:05 PM PDT
Civil Twilight 6:40 AM PDT 6:30 PM PDT
Nautical Twilight 6:11 AM PDT 7:00 PM PDT
Astronomical Twilight 5:42 AM PDT 7:29 PM PDT
Moon No Moon Rise 1:23 PM PDT (10/26)
Length of Visible Light 11h 49m
Length of Day
10h 58m
Waning Gibbous, 52% of the Moon is Illuminated
Oct 26
Waning Gibbous
Oct 26
Last Quarter
Nov 3
New
Nov 9
First Quarter
Nov 17
Full

Hourly Weather History & Observations

Time (PDT) Temp. Dew Point Humidity Pressure Visibility Wind Dir Wind Speed Gust Speed Precip Events Conditions
12:58 AM 56.5 °F 56.5 °F 100% 30.08 in 4.0 mi ENE 1.2 mph - N/A   Clear
1:19 AM 55.4 °F 55.4 °F 100% 30.07 in 4.0 mi Calm Calm - N/A   Partly Cloudy
1:49 AM 53.6 °F 53.6 °F 100% 30.07 in 3.0 mi Calm Calm - N/A   Partly Cloudy
1:54 AM 53.6 °F 53.6 °F 100% 30.07 in 2.5 mi Calm Calm - N/A   Partly Cloudy
1:58 AM 54.5 °F 54.5 °F 100% 30.08 in 2.0 mi Calm Calm - N/A   Partly Cloudy
2:08 AM 55.4 °F 55.4 °F 100% 30.08 in 0.8 mi Calm Calm - N/A   Clear
2:18 AM 55.4 °F 55.4 °F 100% 30.07 in 1.8 mi Calm Calm - N/A   Clear
2:28 AM 55.4 °F 55.4 °F 100% 30.07 in 1.5 mi Calm Calm - N/A   Clear
2:33 AM 55.4 °F 55.4 °F 100% 30.07 in 2.5 mi Calm Calm - N/A   Clear
2:38 AM 53.6 °F 53.6 °F 100% 30.07 in 3.0 mi Calm Calm - N/A   Clear
2:43 AM 53.6 °F 53.6 °F 100% 30.07 in 4.0 mi Calm Calm - N/A   Partly Cloudy
2:53 AM 53.6 °F 53.6 °F 100% 30.07 in 0.5 mi Calm Calm - N/A Fog Fog
2:58 AM 53.6 °F 53.6 °F 100% 30.08 in 0.2 mi Calm Calm - N/A Fog Fog
3:23 AM 53.6 °F 53.6 °F 100% 30.07 in 0.5 mi Calm Calm - N/A Fog Fog
3:28 AM 53.6 °F 53.6 °F 100% 30.06 in 0.2 mi Calm Calm - N/A Fog Fog
3:58 AM 51.8 °F 51.8 °F 100% 30.07 in 0.2 mi NW 2.3 mph - N/A Fog Fog
4:03 AM 51.8 °F 51.8 °F 100% 30.06 in 0.2 mi West 2.3 mph - N/A Fog Fog
4:08 AM 53.6 °F 53.6 °F 100% 30.06 in 1.0 mi West 2.3 mph - N/A   Overcast
4:13 AM 53.6 °F 53.6 °F 100% 30.06 in 4.0 mi WSW 2.3 mph - N/A   Overcast
4:28 AM 53.6 °F 53.6 °F 100% 30.06 in 5.0 mi West 2.3 mph - N/A   Overcast
4:38 AM 55.4 °F 55.4 °F 100% 30.06 in 2.5 mi Calm Calm - N/A   Overcast
4:43 AM 55.4 °F 55.4 °F 100% 30.06 in 2.0 mi Calm Calm - N/A   Overcast
4:53 AM 55.4 °F 55.4 °F 100% 30.06 in 1.8 mi Calm Calm - N/A   Overcast
4:58 AM 55.8 °F 55.8 °F 100% 30.07 in 1.5 mi Calm Calm - N/A   Overcast
5:03 AM 57.2 °F 57.2 °F 100% 30.06 in 1.2 mi Calm Calm - N/A   Overcast
5:08 AM 57.2 °F 57.2 °F 100% 30.06 in 0.8 mi Calm Calm - N/A   Mist
5:13 AM 57.2 °F 57.2 °F 100% 30.06 in 0.5 mi Calm Calm - N/A Fog Fog
5:18 AM 57.2 °F 57.2 °F 100% 30.07 in 0.2 mi NNW 2.3 mph - N/A Fog Fog
5:58 AM 57.0 °F 57.0 °F 100% 30.08 in 0.2 mi Calm Calm - N/A Fog Fog
6:58 AM 57.0 °F 57.0 °F 100% 30.08 in 0.2 mi Calm Calm - N/A Fog Fog
7:58 AM 56.8 °F 56.8 °F 100% 30.09 in 0.2 mi ENE 1.2 mph - N/A Fog Fog
8:38 AM 57.2 °F 57.2 °F 100% 30.09 in 0.2 mi Calm Calm - N/A Fog Fog
8:48 AM 57.2 °F 57.2 °F 100% 30.09 in 0.2 mi Calm Calm - N/A Fog Fog
8:58 AM 57.4 °F 57.4 °F 100% 30.10 in 0.2 mi North 2.3 mph - N/A Fog Fog
9:03 AM 57.2 °F 57.2 °F 100% 30.09 in 0.2 mi NNE 2.3 mph - N/A Fog Fog
9:18 AM 57.2 °F 57.2 °F 100% 30.09 in 0.2 mi Variable 2.3 mph - N/A Fog Fog
9:28 AM 57.2 °F 57.2 °F 100% 30.09 in 0.5 mi Calm Calm - N/A Fog Fog
9:33 AM 57.2 °F 57.2 °F 100% 30.09 in 0.8 mi WNW 2.3 mph - N/A   Mist
9:58 AM 57.9 °F 57.9 °F 100% 30.10 in 0.8 mi Calm Calm - N/A   Mist
10:13 AM 57.2 °F 57.2 °F 100% 30.09 in 1.0 mi Calm Calm - N/A   Mist
10:18 AM 59.0 °F 59.0 °F 100% 30.09 in 1.2 mi Variable 1.2 mph - N/A   Overcast
10:23 AM 59.0 °F 59.0 °F 100% 30.08 in 1.5 mi Variable 3.5 mph - N/A   Overcast
10:33 AM 59.0 °F 59.0 °F 100% 30.08 in 1.8 mi NW 2.3 mph - N/A   Overcast
10:53 AM 59.0 °F 59.0 °F 100% 30.08 in 1.8 mi NW 3.5 mph - N/A   Overcast
10:58 AM 59.5 °F 59.5 °F 100% 30.09 in 2.0 mi WNW 5.8 mph - N/A   Overcast
11:08 AM 59.0 °F 59.0 °F 100% 30.07 in 1.8 mi NW 4.6 mph - N/A   Overcast
11:13 AM 60.8 °F 60.8 °F 100% 30.07 in 2.0 mi Variable 1.2 mph - N/A   Overcast
11:23 AM 60.8 °F 60.8 °F 100% 30.07 in 2.5 mi Variable 1.2 mph - N/A   Overcast
11:38 AM 62.6 °F 62.6 °F 100% 30.07 in 2.5 mi Variable 1.2 mph - N/A   Scattered Clouds
11:53 AM 64.4 °F 64.4 °F 100% 30.06 in 3.0 mi SW 3.5 mph - N/A   Clear
11:58 AM 64.4 °F 64.4 °F 100% 30.07 in 3.0 mi Calm Calm - N/A   Clear
12:58 PM 72.1 °F 62.6 °F 72% 30.03 in 3.0 mi SSW 6.9 mph - N/A   Haze
1:58 PM 70.0 °F 63.1 °F 79% 30.01 in 4.0 mi South 10.4 mph - N/A   Haze
2:58 PM 66.9 °F 64.2 °F 91% 30.00 in 5.0 mi South 8.1 mph - N/A   Clear
3:58 PM 68.2 °F 63.9 °F 86% 29.99 in 5.0 mi South 4.6 mph - N/A   Haze
4:58 PM 68.5 °F 59.0 °F 72% 29.98 in 6.0 mi West 6.9 mph - N/A   Haze
5:58 PM 66.2 °F 62.4 °F 88% 29.98 in 10.0 mi West 4.6 mph - N/A   Clear
6:58 PM 63.7 °F 62.1 °F 94% 29.98 in 10.0 mi NNE 2.3 mph - N/A   Clear
7:58 PM 60.6 °F 60.4 °F 99% 29.98 in 9.0 mi Calm Calm - N/A   Clear
8:58 PM 59.4 °F 59.4 °F 100% 29.99 in 6.0 mi South 3.5 mph - N/A   Clear
9:17 PM 59.0 °F 59.0 °F 100% 29.98 in 5.0 mi South 2.3 mph - N/A Rain Light Rain
9:27 PM 59.0 °F 59.0 °F 100% 29.98 in 4.0 mi Calm Calm - N/A   Clear
9:46 PM 59.0 °F 59.0 °F 100% 29.98 in 4.0 mi Calm Calm - N/A Rain Light Rain
9:56 PM 59.0 °F 59.0 °F 100% 29.98 in 3.0 mi SW 2.3 mph - N/A   Clear
9:58 PM 59.0 °F 59.0 °F 100% 29.99 in 3.0 mi Calm Calm - 0.00 in   Clear
10:03 PM 57.2 °F 57.2 °F 100% 29.99 in 2.0 mi Calm Calm - N/A   Clear
10:08 PM 57.2 °F 57.2 °F 100% 29.99 in 1.0 mi Calm Calm - N/A   Clear
10:13 PM 57.2 °F 57.2 °F 100% 29.99 in 0.5 mi Calm Calm - N/A Fog Fog
10:18 PM 57.2 °F 57.2 °F 100% 29.99 in 0.2 mi Calm Calm - N/A Fog Fog
10:28 PM 57.2 °F 57.2 °F 100% 29.99 in 0.5 mi Calm Calm - N/A Fog Fog
10:33 PM 57.2 °F 57.2 °F 100% 29.99 in 0.2 mi Calm Calm - N/A Fog Fog
10:38 PM 57.2 °F 57.2 °F 100% 29.99 in 0.5 mi Calm Calm - N/A Fog Fog
10:43 PM 57.2 °F 57.2 °F 100% 29.99 in 1.0 mi Calm Calm - N/A   Clear
10:48 PM 57.2 °F 57.2 °F 100% 29.99 in 2.0 mi South 1.2 mph - N/A   Clear
10:53 PM 57.2 °F 57.2 °F 100% 29.99 in 3.0 mi South 2.3 mph - N/A   Clear
10:58 PM 57.7 °F 57.7 °F 100% 30.00 in 4.0 mi SSW 3.5 mph - N/A   Clear
11:03 PM 57.2 °F 57.2 °F 100% 29.99 in 1.0 mi South 3.5 mph - N/A   Clear
11:08 PM 57.2 °F 57.2 °F 100% 29.99 in 0.8 mi South 3.5 mph - N/A   Clear
11:13 PM 57.2 °F 57.2 °F 100% 29.99 in 1.2 mi South 3.5 mph - N/A   Clear
11:18 PM 57.2 °F 57.2 °F 100% 29.99 in 2.5 mi South 2.3 mph - N/A   Clear
11:33 PM 57.2 °F 57.2 °F 100% 29.99 in 1.2 mi Calm Calm - N/A   Clear
11:38 PM 57.2 °F 57.2 °F 100% 29.99 in 0.5 mi Calm Calm - N/A Fog Fog
11:43 PM 57.2 °F 57.2 °F 100% 29.99 in 0.2 mi Calm Calm - N/A Fog Fog
11:58 PM 57.2 °F 57.2 °F 100% 29.99 in 0.5 mi East 2.3 mph - N/A Fog Fog